Hourly Weather Klapaya

Today, 27 July, Tuesday

Time Temperature Precipitation Wind Pressure Humidity
00:00 +27°C° 0 mm 2 mps 760 mmHg 43%
01:00 +27°C° 0 mm 2 mps 760 mmHg 44%
02:00 +26°C° 0 mm 2 mps 760 mmHg 46%
03:00 +26°C° 0 mm 2 mps 760 mmHg 48%
04:00 +26°C° 0 mm 2 mps 760 mmHg 51%
05:00 +25°C° 0 mm 2 mps 760 mmHg 53%
06:00 +26°C° 0 mm 2 mps 760 mmHg 51%
07:00 +28°C° 0 mm 2 mps 760 mmHg 49%
08:00 +29°C° 0 mm 2 mps 760 mmHg 47%
09:00 +30°C° 0 mm 2 mps 760 mmHg 42%
10:00 +32°C° 0 mm 2 mps 760 mmHg 36%
11:00 +35°C° 0 mm 2 mps 760 mmHg 31%
12:00 +35°C° 0 mm 2 mps 760 mmHg 30%
13:00 +36°C° 0 mm 2 mps 760 mmHg 28%
14:00 +36°C° 0 mm 2 mps 759 mmHg 27%
15:00 +36°C° 0 mm 3 mps 759 mmHg 28%
16:00 +35°C° 0 mm 3 mps 759 mmHg 30%
17:00 +35°C° 0 mm 3 mps 759 mmHg 31%
18:00 +33°C° 0 mm 3 mps 759 mmHg 35%
19:00 +31°C° 0 mm 2 mps 759 mmHg 39%
20:00 +29°C° 0 mm 1 mps 759 mmHg 43%
21:00 +28°C° 0 mm 1 mps 759 mmHg 44%
22:00 +28°C° 0 mm 1 mps 759 mmHg 45%
23:00 +27°C° 0 mm 1 mps 760 mmHg 46%

Tomorrow, 28 July, Wednesday

Time Temperature Precipitation Wind Pressure Humidity
00:00 +27°C° 0 mm 1 mps 759 mmHg 46%
01:00 +27°C° 0 mm 1 mps 759 mmHg 47%
02:00 +26°C° 0 mm 1 mps 759 mmHg 47%
03:00 +26°C° 0 mm 1 mps 759 mmHg 48%
04:00 +26°C° 0 mm 1 mps 759 mmHg 50%
05:00 +26°C° 0 mm 1 mps 759 mmHg 51%
06:00 +27°C° 0 mm 2 mps 759 mmHg 48%
07:00 +29°C° 0 mm 2 mps 759 mmHg 45%
08:00 +30°C° 0 mm 2 mps 759 mmHg 43%
09:00 +31°C° 0 mm 3 mps 759 mmHg 39%
10:00 +33°C° 0 mm 4 mps 759 mmHg 36%
11:00 +35°C° 0 mm 4 mps 759 mmHg 33%
12:00 +35°C° 0 mm 5 mps 759 mmHg 33%
13:00 +35°C° 0 mm 5 mps 758 mmHg 32%
14:00 +35°C° 0 mm 6 mps 758 mmHg 32%
15:00 +34°C° 0 mm 6 mps 758 mmHg 35%
16:00 +34°C° 0 mm 5 mps 758 mmHg 38%
17:00 +33°C° 0 mm 5 mps 757 mmHg 41%
18:00 +30°C° 0 mm 5 mps 757 mmHg 49%
19:00 +29°C° 0 mm 5 mps 757 mmHg 58%
20:00 +27°C° 0 mm 5 mps 757 mmHg 67%
21:00 +27°C° 0 mm 5 mps 757 mmHg 69%
22:00 +26°C° 0 mm 5 mps 757 mmHg 71%
23:00 +26°C° 0 mm 5 mps 757 mmHg 73%

Day after tomorrow, 29 July, Thursday

Time Temperature Precipitation Wind Pressure Humidity
00:00 +26°C° 0 mm 4 mps 757 mmHg 73%
01:00 +26°C° 0 mm 4 mps 757 mmHg 74%
02:00 +25°C° 0 mm 3 mps 757 mmHg 74%
03:00 +25°C° 0.2 mm 3 mps 757 mmHg 75%
04:00 +25°C° 0.2 mm 3 mps 756 mmHg 76%
05:00 +24°C° 0.2 mm 3 mps 756 mmHg 77%
06:00 +26°C° 0 mm 4 mps 756 mmHg 68%
07:00 +28°C° 0 mm 5 mps 756 mmHg 60%
08:00 +30°C° 0 mm 6 mps 756 mmHg 52%
09:00 +32°C° 0 mm 6 mps 756 mmHg 48%
10:00 +33°C° 0 mm 6 mps 756 mmHg 44%
11:00 +34°C° 0 mm 6 mps 756 mmHg 40%
12:00 +34°C° 0 mm 6 mps 756 mmHg 39%
13:00 +34°C° 0 mm 7 mps 756 mmHg 39%
14:00 +34°C° 0 mm 7 mps 756 mmHg 38%
15:00 +34°C° 0 mm 6 mps 755 mmHg 40%
16:00 +33°C° 0 mm 6 mps 755 mmHg 42%
17:00 +32°C° 0 mm 6 mps 755 mmHg 44%
18:00 +30°C° 0 mm 5 mps 755 mmHg 51%
19:00 +28°C° 0 mm 5 mps 755 mmHg 58%
20:00 +27°C° 0 mm 5 mps 755 mmHg 65%
21:00 +26°C° 0.1 mm 4 mps 755 mmHg 69%
22:00 +26°C° 0.1 mm 4 mps 754 mmHg 73%
23:00 +25°C° 0.1 mm 3 mps 754 mmHg 78%

30 July, Friday

Time Temperature Precipitation Wind Pressure Humidity
00:00 +25°C° 0 mm 3 mps 754 mmHg 78%
01:00 +25°C° 0 mm 2 mps 754 mmHg 79%
02:00 +25°C° 0 mm 2 mps 754 mmHg 79%
03:00 +25°C° 0 mm 2 mps 754 mmHg 80%
04:00 +25°C° 0 mm 2 mps 754 mmHg 81%
05:00 +24°C° 0 mm 1 mps 754 mmHg 82%
06:00 +26°C° 0 mm 2 mps 754 mmHg 74%
07:00 +28°C° 0 mm 3 mps 755 mmHg 67%
08:00 +30°C° 0 mm 3 mps 755 mmHg 60%
09:00 +31°C° 0 mm 3 mps 755 mmHg 54%
10:00 +33°C° 0 mm 3 mps 755 mmHg 48%
11:00 +35°C° 0 mm 3 mps 755 mmHg 42%
12:00 +36°C° 0 mm 3 mps 754 mmHg 40%
13:00 +36°C° 0 mm 3 mps 754 mmHg 38%
14:00 +37°C° 0 mm 3 mps 754 mmHg 36%
15:00 +36°C° 0 mm 3 mps 754 mmHg 37%
16:00 +36°C° 0 mm 3 mps 754 mmHg 38%
17:00 +35°C° 0 mm 4 mps 753 mmHg 40%
18:00 +34°C° 0 mm 3 mps 754 mmHg 44%
19:00 +31°C° 0 mm 3 mps 754 mmHg 48%
20:00 +30°C° 0 mm 2 mps 754 mmHg 53%
21:00 +30°C° 0 mm 2 mps 754 mmHg 53%
22:00 +29°C° 0 mm 2 mps 754 mmHg 53%
23:00 +29°C° 0 mm 2 mps 754 mmHg 53%

31 July, Saturday

Time Temperature Precipitation Wind Pressure Humidity
00:00 +28°C° 0 mm 2 mps 754 mmHg 54%
01:00 +28°C° 0 mm 3 mps 754 mmHg 54%
02:00 +28°C° 0 mm 3 mps 754 mmHg 55%
03:00 +27°C° 0 mm 2 mps 754 mmHg 57%
04:00 +27°C° 0 mm 2 mps 754 mmHg 58%
05:00 +27°C° 0 mm 2 mps 754 mmHg 59%
06:00 +28°C° 0 mm 2 mps 754 mmHg 57%
07:00 +29°C° 0 mm 2 mps 754 mmHg 54%
08:00 +30°C° 0 mm 2 mps 754 mmHg 52%
09:00 +32°C° 0 mm 2 mps 754 mmHg 47%
10:00 +34°C° 0 mm 2 mps 754 mmHg 43%
11:00 +34°C° 0 mm 1 mps 754 mmHg 38%
12:00 +36°C° 0 mm 2 mps 753 mmHg 36%
13:00 +36°C° 0 mm 3 mps 753 mmHg 35%
14:00 +37°C° 0 mm 3 mps 753 mmHg 33%
15:00 +36°C° 0 mm 3 mps 753 mmHg 35%
16:00 +36°C° 0 mm 3 mps 752 mmHg 37%
17:00 +35°C° 0 mm 4 mps 752 mmHg 39%
18:00 +33°C° 0 mm 3 mps 753 mmHg 45%
19:00 +31°C° 0 mm 3 mps 753 mmHg 52%
20:00 +29°C° 0 mm 3 mps 753 mmHg 58%
21:00 +28°C° 0 mm 3 mps 753 mmHg 61%
22:00 +27°C° 0 mm 3 mps 753 mmHg 65%
23:00 +27°C° 0 mm 3 mps 753 mmHg 69%

1 August, Sunday

Time Temperature Precipitation Wind Pressure Humidity
00:00 +26°C° 0 mm 3 mps 753 mmHg 70%
01:00 +26°C° 0 mm 2 mps 753 mmHg 72%
02:00 +26°C° 0 mm 2 mps 753 mmHg 73%
03:00 +26°C° 0 mm 2 mps 753 mmHg 73%
04:00 +26°C° 0 mm 2 mps 753 mmHg 74%
05:00 +26°C° 0 mm 2 mps 753 mmHg 74%
06:00 +27°C° 0 mm 2 mps 753 mmHg 66%
07:00 +29°C° 0 mm 3 mps 753 mmHg 58%
08:00 +31°C° 0 mm 3 mps 754 mmHg 49%
09:00 +33°C° 0 mm 3 mps 754 mmHg 45%
10:00 +34°C° 0 mm 3 mps 754 mmHg 41%
11:00 +36°C° 0 mm 3 mps 754 mmHg 38%
12:00 +36°C° 0 mm 3 mps 754 mmHg 36%
13:00 +36°C° 0 mm 4 mps 754 mmHg 35%
14:00 +37°C° 0 mm 4 mps 754 mmHg 34%
15:00 +36°C° 0 mm 4 mps 754 mmHg 35%
16:00 +36°C° 0 mm 4 mps 753 mmHg 36%
17:00 +35°C° 0 mm 4 mps 753 mmHg 37%
18:00 +33°C° 0 mm 3 mps 754 mmHg 44%
19:00 +30°C° 0 mm 3 mps 754 mmHg 51%
20:00 +28°C° 0 mm 3 mps 754 mmHg 58%
21:00 +28°C° 0 mm 3 mps 754 mmHg 60%
22:00 +27°C° 0 mm 3 mps 753 mmHg 63%
23:00 +27°C° 0 mm 3 mps 753 mmHg 65%
Show more